Flag for Canada Weather for the Past 2 Weeks in Conception Bay South, Newfoundland and Labrador, Canada

Now
23 °F

Overcast.


Feels Like: 8 °F
Forecast: 24 / 36 °F
Wind: 20 mph from Northeast

Location: St. John's

Current Time: Feb 8, 2016 at 11:08:00 PM

Latest Report: Feb 8, 2016 at 9:30 PM


Visibility: 15 mi

Pressure: 30.06 "Hg

Humidity: 80%

Dew point: 18 °F

Location of Conception Bay SouthLocation

Historic Weather in Conception Bay South — Graph

°F

Conception Bay South Temperature Yesterday

Maximum temperature yesterday: 28 °F (at 1:30 PM)
Minimum temperature yesterday: 19 °F (at 6:30 AM)
Average temperature yesterday: 25 °F

High & Low Weather Summary for the Past Weeks

 TemperatureHumidityPressure
High55 °F (Feb 6, 5:30 AM)100% (Jan 27, 11:30 AM)30.39 "Hg (Jan 27, 11:30 AM)
Low10 °F (Jan 26, 6:30 AM)50% (Jan 25, 12:30 PM)28.69 "Hg (Jan 30, 4:30 AM)
Average29 °F82%29.87 "Hg
* Reported Jan 24 9:30 PM — Feb 8 9:30 PM, Conception Bay South, Weather by CustomWeather, © 2016

Note: Actual official high and low records may vary slightly from our data, if they occured in-between our weather recording intervals... More about our weather records

Advertising

Conception Bay South Weather History for the Previous 24 Hours

 ConditionsComfort  
Time TempWeatherWind HumidityBarometerVisibility
9:30 PM
Mon, Feb 8
23 °FOvercast.20 mph80%30.06 "Hg15 mi
8:30 PM23 °FOvercast.20 mph80%30.11 "Hg15 mi
7:30 PM21 °FOvercast.18 mph86%30.07 "Hg15 mi
6:30 PM19 °FLow clouds.18 mph86%30.10 "Hg15 mi
5:30 PM19 °FOvercast.18 mph86%30.16 "Hg15 mi
4:30 PM19 °FLow clouds.16 mph79%30.16 "Hg15 mi
3:30 PM19 °FSnow flurries. Low clouds.16 mph79%30.15 "Hg10 mi
2:30 PM19 °FSnow flurries. Low clouds.16 mph79%30.14 "Hg10 mi
1:30 PM19 °FSnow flurries. Overcast.17 mph79%30.16 "Hg10 mi
12:30 PM19 °FSnow flurries. Overcast.16 mph73%30.16 "Hg15 mi
11:30 AM21 °FSnow flurries. Overcast.13 mph68%30.18 "Hg15 mi
10:30 AM19 °FPartly sunny.16 mph68%30.18 "Hg15 mi
9:30 AM19 °FBroken clouds.18 mph68%30.15 "Hg15 mi
8:30 AM19 °FBroken clouds.18 mph68%30.12 "Hg15 mi
7:30 AM19 °FPartly sunny.13 mph63%30.11 "Hg15 mi
6:30 AM19 °FPassing clouds.23 mph63%30.07 "Hg15 mi
5:30 AM18 °FPassing clouds.21 mph68%30.05 "Hg15 mi
4:30 AM19 °FPassing clouds.21 mph58%30.03 "Hg15 mi
3:30 AM19 °FPassing clouds.20 mph58%30.00 "Hg15 mi
2:30 AM21 °FPassing clouds.24 mph58%29.99 "Hg15 mi
1:30 AM25 °FPassing clouds.33 mph59%29.92 "Hg15 mi
12:30 AM28 °FSnow flurries. Mostly cloudy.23 mph80%29.90 "Hg15 mi
11:30 PM
Sun, Feb 7
28 °FSnow flurries. Overcast.16 mph86%29.90 "Hg15 mi
Weather by CustomWeather, © 2016

See weather overviewHow to use our weather pages